Location: Estes Park
(40.3770°N, 105.5210°W)
Time: 09:14:31
(UTC-06:00)

Vanguard 2 Rocket - Visible Passes

Search period start: 17 October 2017 00:00
Search period end: 27 October 2017 00:00
Orbit: 555 x 3327 km, 32.9° (Epoch: 16 October)

Date Brightness Start Highest point End Pass type
(mag) Time Alt. Az. Time Alt. Az. Time Alt. Az.
17 Oct 10.1 19:04:18 10° W 19:16:13 40° SSW 19:33:17 10° SE visible
17 Oct 10.9 21:22:10 10° WSW 21:32:16 19° SW 21:43:46 10° S visible
18 Oct 10.6 20:20:14 10° W 20:31:22 25° SW 20:45:18 10° S visible
19 Oct 10.4 19:19:35 10° W 19:30:29 31° SSW 19:45:32 10° SSE visible
19 Oct 11.1 21:44:16 10° SW 21:46:21 10° SW 21:48:29 10° SW visible
20 Oct 10.2 18:19:41 10° W 18:29:45 36° SSW 18:44:56 10° SE visible
20 Oct 11.0 20:37:31 10° WSW 20:45:33 16° SW 20:54:58 10° S visible
21 Oct 10.8 19:35:39 10° WSW 19:44:48 21° SSW 19:56:40 10° S visible
22 Oct 10.5 18:35:10 10° WSW 18:44:11 26° SSW 18:56:58 10° SSE visible
23 Oct 11.1 19:54:00 10° SW 19:59:12 13° SW 20:05:10 10° SSW visible
24 Oct 10.9 18:51:41 10° WSW 18:58:40 17° SSW 19:07:35 10° S visible
